Flag for U.S.A. Weather past 2 weeks in Hialeah, Florida, U.S.A.

Now
63 °F

Clear.


Feels Like: 63 °F
Forecast: 66 / 80 °F
Wind: No wind

Location: Opa Locka Airport

Current Time: Dec 20, 2014 at 11:54:47 PM

Latest Report: Dec 20, 2014 at 10:53 PM


Visibility: 10 mi

Pressure: 30.10 "Hg

Humidity: 97%

Dew point: 62 °F

Location of HialeahLocation

Historic Weather in Hialeah — Graph

°F

Hialeah temperature yesterday

Maximum temperature yesterday: 77 °F (at 1:53 PM)
Minimum temperature yesterday: 58 °F (at 2:53 AM)
Average temperature yesterday: 67 °F

Past Weeks' High & Low Weather Summary

 TemperatureHumidityPressure
High80 °F (Dec 6, 10:53 AM)100% (Dec 6, 6:53 AM)30.25 "Hg (Dec 6, 6:53 AM)
Low46 °F (Dec 11, 2:53 AM)33% (Dec 10, 2:53 PM)29.98 "Hg (Dec 9, 2:00 PM)
Average64 °F72%30.10 "Hg
* Reported Dec 5 10:53 PM — Dec 20 10:53 PM, Hialeah, Weather by CustomWeather, © 2014

Note: Actual official high and low records may vary slightly from our data, if they occured in-between our weather recording intervals... More about our weather records

Advertising

Hialeah weather history for previous 24 hours

 ConditionsComfort  
Time TempWeatherWind HumidityBarometerVisibility
10:53 PM
Dec 20
63 °FClear.No wind97%30.10 "Hg10 mi
9:53 PM63 °FClear.No wind93%30.10 "Hg10 mi
8:53 PM66 °FClear.No wind87%30.09 "Hg10 mi
7:53 PM67 °FClear.No wind81%30.09 "Hg10 mi
6:53 PM70 °FClear.No wind73%30.07 "Hg10 mi
5:53 PM70 °FClear.3 mph73%30.06 "Hg10 mi
4:53 PM74 °FPartly sunny.14 mph64%30.04 "Hg10 mi
3:53 PM77 °FPartly sunny.14 mph58%30.04 "Hg10 mi
2:53 PM77 °FBroken clouds.9 mph60%30.04 "Hg10 mi
1:53 PM79 °FOvercast.10 mph56%30.04 "Hg10 mi
12:53 PM77 °FScattered clouds.5 mph54%30.06 "Hg10 mi
11:53 AM78 °FScattered clouds.9 mph52%30.09 "Hg10 mi
10:53 AM76 °FScattered clouds.8 mph58%30.11 "Hg10 mi
9:53 AM73 °FSunny.No wind71%30.11 "Hg10 mi
8:53 AM64 °FSunny.No wind94%30.10 "Hg10 mi
7:53 AM59 °FSunny.No wind93%30.09 "Hg10 mi
6:53 AM58 °FClear.No wind97%30.08 "Hg10 mi
5:53 AM56 °FClear.No wind100%30.06 "Hg10 mi
4:53 AM57 °FClear.No wind96%30.05 "Hg10 mi
3:53 AM58 °FPassing clouds.3 mph97%30.05 "Hg10 mi
2:53 AM58 °FClear.No wind97%30.05 "Hg10 mi
1:53 AM61 °FClear.No wind93%30.06 "Hg10 mi
12:53 AM61 °FClear.No wind90%30.06 "Hg10 mi
11:53 PM
Dec 19
62 °FClear.3 mph86%30.08 "Hg10 mi
Weather by CustomWeather, © 2014

See weather overviewHow to use our weather pages